Year,Month,Day,Hour,Minute,Value (Times are PST for temperature in C)
2017,05,28,00,00,13.30
2017,05,28,00,01,13.30
2017,05,28,00,02,13.30
2017,05,28,00,03,13.30
2017,05,28,00,04,13.30
2017,05,28,00,05,13.30
2017,05,28,00,06,13.30
2017,05,28,00,07,13.30
2017,05,28,00,08,13.30
2017,05,28,00,09,13.30
2017,05,28,00,10,13.30
2017,05,28,00,11,13.30
2017,05,28,00,12,13.30
2017,05,28,00,13,13.20
2017,05,28,00,14,13.20
2017,05,28,00,15,13.20
2017,05,28,00,16,13.20
2017,05,28,00,17,13.20
2017,05,28,00,18,13.20
2017,05,28,00,19,13.20
2017,05,28,00,20,13.20
2017,05,28,00,21,13.20
2017,05,28,00,22,13.20
2017,05,28,00,23,13.20
2017,05,28,00,24,13.20
2017,05,28,00,25,13.20
2017,05,28,00,26,13.20
2017,05,28,00,27,13.20
2017,05,28,00,28,13.20
2017,05,28,00,29,13.20
2017,05,28,00,30,13.20
2017,05,28,00,31,13.20
2017,05,28,00,32,13.10
2017,05,28,00,33,13.10
2017,05,28,00,34,13.10
2017,05,28,00,35,13.10
2017,05,28,00,36,13.10
2017,05,28,00,37,13.10
2017,05,28,00,38,13.10
2017,05,28,00,39,13.00
2017,05,28,00,40,13.00
2017,05,28,00,41,13.00
2017,05,28,00,42,13.00
2017,05,28,00,43,13.00
2017,05,28,00,44,13.00
2017,05,28,00,45,12.90
2017,05,28,00,46,12.90
2017,05,28,00,47,12.90
2017,05,28,00,48,12.80
2017,05,28,00,49,12.80
2017,05,28,00,50,12.80
2017,05,28,00,51,12.80
2017,05,28,00,52,12.70
2017,05,28,00,53,12.70
2017,05,28,00,54,12.70
2017,05,28,00,55,12.70
2017,05,28,00,56,12.60
2017,05,28,00,57,12.60
2017,05,28,00,58,12.60
2017,05,28,00,59,12.60
2017,05,28,01,00,12.60
2017,05,28,01,01,12.60
2017,05,28,01,02,12.60
2017,05,28,01,03,12.60
2017,05,28,01,04,12.60
2017,05,28,01,05,12.60
2017,05,28,01,06,12.60
2017,05,28,01,07,12.60
2017,05,28,01,08,12.50
2017,05,28,01,09,12.50
2017,05,28,01,10,12.50
2017,05,28,01,11,12.50
2017,05,28,01,12,12.50
2017,05,28,01,13,12.50
2017,05,28,01,14,12.40
2017,05,28,01,15,12.40
2017,05,28,01,16,12.40
2017,05,28,01,17,12.40
2017,05,28,01,18,12.40
2017,05,28,01,19,12.40
2017,05,28,01,20,12.30
2017,05,28,01,21,12.30
2017,05,28,01,22,12.30
2017,05,28,01,23,12.30
2017,05,28,01,24,12.30
2017,05,28,01,25,12.30
2017,05,28,01,26,12.30
2017,05,28,01,27,12.30
2017,05,28,01,28,12.30
2017,05,28,01,29,12.30
2017,05,28,01,30,12.30
2017,05,28,01,31,12.30
2017,05,28,01,32,12.30
2017,05,28,01,33,12.30
2017,05,28,01,34,12.30
2017,05,28,01,35,12.30
2017,05,28,01,36,12.30
2017,05,28,01,37,12.30
2017,05,28,01,38,12.30
2017,05,28,01,39,12.30
2017,05,28,01,40,12.30
2017,05,28,01,41,12.30
2017,05,28,01,42,12.30
2017,05,28,01,43,12.30
2017,05,28,01,44,12.30
2017,05,28,01,45,12.30
2017,05,28,01,46,12.30
2017,05,28,01,47,12.30
2017,05,28,01,48,12.30
2017,05,28,01,49,12.30
2017,05,28,01,50,12.30
2017,05,28,01,51,12.30
2017,05,28,01,52,12.30
2017,05,28,01,53,12.30
2017,05,28,01,54,12.30
2017,05,28,01,55,12.30
2017,05,28,01,56,12.30
2017,05,28,01,57,12.30
2017,05,28,01,58,12.30
2017,05,28,01,59,12.30
2017,05,28,02,00,12.30
2017,05,28,02,01,12.30
2017,05,28,02,02,12.30
2017,05,28,02,03,12.30
2017,05,28,02,04,12.30
2017,05,28,02,05,12.30
2017,05,28,02,06,12.30
2017,05,28,02,07,12.30
2017,05,28,02,08,12.30
2017,05,28,02,09,12.30
2017,05,28,02,10,12.30
2017,05,28,02,11,12.30
2017,05,28,02,12,12.30
2017,05,28,02,13,12.30
2017,05,28,02,14,12.30
2017,05,28,02,15,12.30
2017,05,28,02,16,12.30
2017,05,28,02,17,12.30
2017,05,28,02,18,12.30
2017,05,28,02,19,12.30
2017,05,28,02,20,12.30
2017,05,28,02,21,12.30
2017,05,28,02,22,12.30
2017,05,28,02,23,12.30
2017,05,28,02,24,12.30
2017,05,28,02,25,12.30
2017,05,28,02,26,12.30
2017,05,28,02,27,12.30
2017,05,28,02,28,12.30
2017,05,28,02,29,12.30
2017,05,28,02,30,12.30
2017,05,28,02,31,12.30
2017,05,28,02,32,12.40
2017,05,28,02,33,12.40
2017,05,28,02,34,12.50
2017,05,28,02,35,12.50
2017,05,28,02,36,12.50
2017,05,28,02,37,12.50
2017,05,28,02,38,12.60
2017,05,28,02,39,12.60
2017,05,28,02,40,12.60
2017,05,28,02,41,12.60
2017,05,28,02,42,12.70
2017,05,28,02,43,12.70
2017,05,28,02,44,12.80
2017,05,28,02,45,12.80
2017,05,28,02,46,12.80
2017,05,28,02,47,12.80
2017,05,28,02,48,12.80
2017,05,28,02,49,12.80
2017,05,28,02,50,12.80
2017,05,28,02,51,12.80
2017,05,28,02,52,12.80
2017,05,28,02,53,12.80
2017,05,28,02,54,12.80
2017,05,28,02,55,12.80
2017,05,28,02,56,12.70
2017,05,28,02,57,12.70
2017,05,28,02,58,12.70
2017,05,28,02,59,12.70
2017,05,28,03,00,12.70
2017,05,28,03,01,12.70
2017,05,28,03,02,12.70
2017,05,28,03,03,12.80
2017,05,28,03,04,12.80
2017,05,28,03,05,12.80
2017,05,28,03,06,12.80
2017,05,28,03,07,12.80
2017,05,28,03,08,12.80
2017,05,28,03,09,12.70
2017,05,28,03,10,12.70
2017,05,28,03,11,12.70
2017,05,28,03,12,12.60
2017,05,28,03,13,12.60
2017,05,28,03,14,12.60
2017,05,28,03,15,12.60
2017,05,28,03,16,12.60
2017,05,28,03,17,12.60
2017,05,28,03,18,12.60
2017,05,28,03,19,12.50
2017,05,28,03,20,12.50
2017,05,28,03,21,12.50
2017,05,28,03,22,12.50
2017,05,28,03,23,12.50
2017,05,28,03,24,12.50
2017,05,28,03,25,12.50
2017,05,28,03,26,12.50
2017,05,28,03,27,12.50
2017,05,28,03,28,12.50
2017,05,28,03,29,12.40
2017,05,28,03,30,12.40
2017,05,28,03,31,12.40
2017,05,28,03,32,12.40
2017,05,28,03,33,12.40
2017,05,28,03,34,12.40
2017,05,28,03,35,12.40
2017,05,28,03,36,12.40
2017,05,28,03,37,12.40
2017,05,28,03,38,12.40
2017,05,28,03,39,12.40
2017,05,28,03,40,12.40
2017,05,28,03,41,12.40
2017,05,28,03,42,12.40
2017,05,28,03,43,12.40
2017,05,28,03,44,12.40
2017,05,28,03,45,12.30
2017,05,28,03,46,12.30
2017,05,28,03,47,12.30
2017,05,28,03,48,12.30
2017,05,28,03,49,12.30
2017,05,28,03,50,12.30
2017,05,28,03,51,12.30
2017,05,28,03,52,12.30
2017,05,28,03,53,12.30
2017,05,28,03,54,12.30
2017,05,28,03,55,12.20
2017,05,28,03,56,12.20
2017,05,28,03,57,12.20
2017,05,28,03,58,12.20
2017,05,28,03,59,12.20
2017,05,28,04,00,12.10
2017,05,28,04,01,12.10
2017,05,28,04,02,12.10
2017,05,28,04,03,12.10
2017,05,28,04,04,12.10
2017,05,28,04,05,12.00
2017,05,28,04,06,12.00
2017,05,28,04,07,12.00
2017,05,28,04,08,12.00
2017,05,28,04,09,12.00
2017,05,28,04,10,12.00
2017,05,28,04,11,11.90
2017,05,28,04,12,11.90
2017,05,28,04,13,11.80
2017,05,28,04,14,11.80
2017,05,28,04,15,11.80
2017,05,28,04,16,11.80
2017,05,28,04,17,11.70
2017,05,28,04,18,11.70
2017,05,28,04,19,11.60
2017,05,28,04,20,11.60
2017,05,28,04,21,11.60
2017,05,28,04,22,11.60
2017,05,28,04,23,11.50
2017,05,28,04,24,11.40
2017,05,28,04,25,11.40
2017,05,28,04,26,11.40
2017,05,28,04,27,11.40
2017,05,28,04,28,11.40
2017,05,28,04,29,11.40
2017,05,28,04,30,11.30
2017,05,28,04,31,11.30
2017,05,28,04,32,11.20
2017,05,28,04,33,11.20
2017,05,28,04,34,11.20
2017,05,28,04,35,11.20
2017,05,28,04,36,11.10
2017,05,28,04,37,11.10
2017,05,28,04,38,11.10
2017,05,28,04,39,11.10
2017,05,28,04,40,11.10
2017,05,28,04,41,11.10
2017,05,28,04,42,11.10
2017,05,28,04,43,11.10
2017,05,28,04,44,11.10
2017,05,28,04,45,11.10
2017,05,28,04,46,11.10
2017,05,28,04,47,11.10
2017,05,28,04,48,11.10
2017,05,28,04,49,11.10
2017,05,28,04,50,11.10
2017,05,28,04,51,11.10
2017,05,28,04,52,11.10
2017,05,28,04,53,11.10
2017,05,28,04,54,11.10
2017,05,28,04,55,11.10
2017,05,28,04,56,11.10
2017,05,28,04,57,11.00
2017,05,28,04,58,11.10
2017,05,28,04,59,11.10
2017,05,28,05,00,11.10
2017,05,28,05,01,11.10
2017,05,28,05,02,11.10
2017,05,28,05,03,11.10
2017,05,28,05,04,11.10
2017,05,28,05,05,11.10
2017,05,28,05,06,11.10
2017,05,28,05,07,11.10
2017,05,28,05,08,11.10
2017,05,28,05,09,11.10
2017,05,28,05,10,11.10
2017,05,28,05,11,11.10
2017,05,28,05,12,11.00
2017,05,28,05,13,10.90
2017,05,28,05,14,10.90
2017,05,28,05,15,10.90
2017,05,28,05,16,11.00
2017,05,28,05,17,11.00
2017,05,28,05,18,10.90
2017,05,28,05,19,10.90
2017,05,28,05,20,11.00
2017,05,28,05,21,11.10
2017,05,28,05,22,11.10
2017,05,28,05,23,11.10
2017,05,28,05,24,11.10
2017,05,28,05,25,11.10
2017,05,28,05,26,11.10
2017,05,28,05,27,11.10
2017,05,28,05,28,11.10
2017,05,28,05,29,11.10
2017,05,28,05,30,11.10
2017,05,28,05,31,11.10
2017,05,28,05,32,11.20
2017,05,28,05,33,11.20
2017,05,28,05,34,11.20
2017,05,28,05,35,11.20
2017,05,28,05,36,11.20
2017,05,28,05,37,11.20
2017,05,28,05,38,11.20
2017,05,28,05,39,11.20
2017,05,28,05,40,11.20
2017,05,28,05,41,11.20
2017,05,28,05,42,11.20
2017,05,28,05,43,11.20
2017,05,28,05,44,11.20
2017,05,28,05,45,11.20
2017,05,28,05,46,11.20
2017,05,28,05,47,11.20
2017,05,28,05,48,11.20
2017,05,28,05,49,11.30
2017,05,28,05,50,11.30
2017,05,28,05,51,11.30
2017,05,28,05,52,11.40
2017,05,28,05,53,11.40
2017,05,28,05,54,11.40
2017,05,28,05,55,11.50
2017,05,28,05,56,11.60
2017,05,28,05,57,11.60
2017,05,28,05,58,11.60
2017,05,28,05,59,11.60
2017,05,28,06,00,11.60
2017,05,28,06,01,11.60
2017,05,28,06,02,11.60
2017,05,28,06,03,11.60
2017,05,28,06,04,11.60
2017,05,28,06,05,11.70
2017,05,28,06,06,11.70
2017,05,28,06,07,11.70
2017,05,28,06,08,11.70
2017,05,28,06,09,11.70
2017,05,28,06,10,11.70
2017,05,28,06,11,11.70
2017,05,28,06,12,11.70
2017,05,28,06,13,11.70
2017,05,28,06,14,11.70
2017,05,28,06,15,11.80
2017,05,28,06,16,11.80
2017,05,28,06,17,11.90
2017,05,28,06,18,12.00
2017,05,28,06,19,12.10
2017,05,28,06,20,12.20
2017,05,28,06,21,12.30
2017,05,28,06,22,12.30
2017,05,28,06,23,12.40
2017,05,28,06,24,12.40
2017,05,28,06,25,12.40
2017,05,28,06,26,12.30
2017,05,28,06,27,12.30
2017,05,28,06,28,12.30
2017,05,28,06,29,12.30
2017,05,28,06,30,12.30
2017,05,28,06,31,12.30
2017,05,28,06,32,12.30
2017,05,28,06,33,12.30
2017,05,28,06,34,12.30
2017,05,28,06,35,12.30
2017,05,28,06,36,12.40
2017,05,28,06,37,12.40
2017,05,28,06,38,12.50
2017,05,28,06,39,12.50
2017,05,28,06,40,12.50
2017,05,28,06,41,12.60
2017,05,28,06,42,12.60
2017,05,28,06,43,12.60
2017,05,28,06,44,12.60
2017,05,28,06,45,12.70
2017,05,28,06,46,12.70
2017,05,28,06,47,12.80
2017,05,28,06,48,12.80
2017,05,28,06,49,12.80
2017,05,28,06,50,12.80
2017,05,28,06,51,12.80
2017,05,28,06,52,12.80
2017,05,28,06,53,12.90
2017,05,28,06,54,12.90
2017,05,28,06,55,12.90
2017,05,28,06,56,12.90
2017,05,28,06,57,13.00
2017,05,28,06,58,13.00
2017,05,28,06,59,13.00
2017,05,28,07,00,13.10
2017,05,28,07,01,13.10
2017,05,28,07,02,13.20
2017,05,28,07,03,13.20
2017,05,28,07,04,13.30
2017,05,28,07,05,13.30
2017,05,28,07,06,13.30
2017,05,28,07,07,13.30
2017,05,28,07,08,13.30
2017,05,28,07,09,13.30
2017,05,28,07,10,13.30
2017,05,28,07,11,13.30
2017,05,28,07,12,13.30
2017,05,28,07,13,13.30
2017,05,28,07,14,13.30
2017,05,28,07,15,13.30
2017,05,28,07,16,13.30
2017,05,28,07,17,13.30
2017,05,28,07,18,13.30
2017,05,28,07,19,13.40
2017,05,28,07,20,13.40
2017,05,28,07,21,13.50
2017,05,28,07,22,13.50
2017,05,28,07,23,13.50
2017,05,28,07,24,13.60
2017,05,28,07,25,13.60
2017,05,28,07,26,13.70
2017,05,28,07,27,13.70
2017,05,28,07,28,13.70
2017,05,28,07,29,13.80
2017,05,28,07,30,13.90
2017,05,28,07,31,13.90
2017,05,28,07,32,14.00
2017,05,28,07,33,14.00
2017,05,28,07,34,14.10
2017,05,28,07,35,14.20
2017,05,28,07,36,14.20
2017,05,28,07,37,14.30
2017,05,28,07,38,14.30
2017,05,28,07,39,14.40
2017,05,28,07,40,14.50
2017,05,28,07,41,14.50
2017,05,28,07,42,14.60
2017,05,28,07,43,14.60
2017,05,28,07,44,14.70
2017,05,28,07,45,14.80
2017,05,28,07,46,14.80
2017,05,28,07,47,14.90
2017,05,28,07,48,14.90
2017,05,28,07,49,15.00
2017,05,28,07,50,15.00
2017,05,28,07,51,15.10
2017,05,28,07,52,15.10
2017,05,28,07,53,15.20
2017,05,28,07,54,15.30
2017,05,28,07,55,15.30
2017,05,28,07,56,15.30
2017,05,28,07,57,15.40
2017,05,28,07,58,15.50
2017,05,28,07,59,15.50
2017,05,28,08,00,15.60
2017,05,28,08,01,15.60
2017,05,28,08,02,15.70
2017,05,28,08,03,15.80
2017,05,28,08,04,15.80
2017,05,28,08,05,15.80
2017,05,28,08,06,15.90
2017,05,28,08,07,15.90
2017,05,28,08,08,15.90
2017,05,28,08,09,15.90
2017,05,28,08,10,16.00
2017,05,28,08,11,16.10
2017,05,28,08,12,16.10
2017,05,28,08,13,16.10
2017,05,28,08,14,16.00
2017,05,28,08,15,15.90
2017,05,28,08,16,15.80
2017,05,28,08,17,15.60
2017,05,28,08,18,15.60
2017,05,28,08,19,15.50
2017,05,28,08,20,15.40
2017,05,28,08,21,15.30
2017,05,28,08,22,15.20
2017,05,28,08,23,15.10
2017,05,28,08,24,15.00
2017,05,28,08,25,14.80
2017,05,28,08,26,14.70
2017,05,28,08,27,14.60
2017,05,28,08,28,14.40
2017,05,28,08,29,14.20
2017,05,28,08,30,14.00
2017,05,28,08,31,13.90
2017,05,28,08,32,13.80
2017,05,28,08,33,13.70
2017,05,28,08,34,13.70
2017,05,28,08,35,13.60
2017,05,28,08,36,13.60
2017,05,28,08,37,13.60
2017,05,28,08,38,13.60
2017,05,28,08,39,13.70
2017,05,28,08,40,13.70
2017,05,28,08,41,13.70
2017,05,28,08,42,13.70
2017,05,28,08,43,13.80
2017,05,28,08,44,13.80
2017,05,28,08,45,13.80
2017,05,28,08,46,13.80
2017,05,28,08,47,13.90
2017,05,28,08,48,13.90
2017,05,28,08,49,14.00
2017,05,28,08,50,14.00
2017,05,28,08,51,14.00
2017,05,28,08,52,14.10
2017,05,28,08,53,14.10
2017,05,28,08,54,14.20
2017,05,28,08,55,14.20
2017,05,28,08,56,14.20
2017,05,28,08,57,14.20
2017,05,28,08,58,14.20
2017,05,28,08,59,14.20
2017,05,28,09,00,14.30
2017,05,28,09,01,14.40
2017,05,28,09,02,14.40
2017,05,28,09,03,14.40
2017,05,28,09,04,14.40
2017,05,28,09,05,14.40
2017,05,28,09,06,14.40
2017,05,28,09,07,14.40
2017,05,28,09,08,14.50
2017,05,28,09,09,14.50
2017,05,28,09,10,14.50
2017,05,28,09,11,14.50
2017,05,28,09,12,14.60
2017,05,28,09,13,14.50
2017,05,28,09,14,14.60
2017,05,28,09,15,14.60
2017,05,28,09,16,14.60
2017,05,28,09,17,14.60
2017,05,28,09,18,14.60
2017,05,28,09,19,14.60
2017,05,28,09,20,14.70
2017,05,28,09,21,14.80
2017,05,28,09,22,14.80
2017,05,28,09,23,14.90
2017,05,28,09,24,15.00
2017,05,28,09,25,15.10
2017,05,28,09,26,15.10
2017,05,28,09,27,15.20
2017,05,28,09,28,15.20
2017,05,28,09,29,15.20
2017,05,28,09,30,15.20
2017,05,28,09,31,15.20
2017,05,28,09,32,15.20
2017,05,28,09,33,15.30
2017,05,28,09,34,15.30
2017,05,28,09,35,15.30
2017,05,28,09,36,15.30
2017,05,28,09,37,15.40
2017,05,28,09,38,15.50
2017,05,28,09,39,15.50
2017,05,28,09,40,15.60
2017,05,28,09,41,15.70
2017,05,28,09,42,15.70
2017,05,28,09,43,15.70
2017,05,28,09,44,15.80
2017,05,28,09,45,15.80
2017,05,28,09,46,15.80
2017,05,28,09,47,16.00
2017,05,28,09,48,16.10
2017,05,28,09,49,16.20
2017,05,28,09,50,16.20
2017,05,28,09,51,16.20
2017,05,28,09,52,16.20
2017,05,28,09,53,16.20
2017,05,28,09,54,16.20
2017,05,28,09,55,16.20
2017,05,28,09,56,16.20
2017,05,28,09,57,16.30
2017,05,28,09,58,16.40
2017,05,28,09,59,16.40
2017,05,28,10,00,16.40
2017,05,28,10,01,16.40
2017,05,28,10,02,16.40
2017,05,28,10,03,16.40
2017,05,28,10,04,16.40
2017,05,28,10,05,16.40
2017,05,28,10,06,16.40
2017,05,28,10,07,16.40
2017,05,28,10,08,16.60
2017,05,28,10,09,16.70
2017,05,28,10,10,16.70
2017,05,28,10,11,16.70
2017,05,28,10,12,16.70
2017,05,28,10,13,16.70
2017,05,28,10,14,16.70
2017,05,28,10,15,16.70
2017,05,28,10,16,16.70
2017,05,28,10,17,16.80
2017,05,28,10,18,16.80
2017,05,28,10,19,16.80
2017,05,28,10,20,16.90
2017,05,28,10,21,17.00
2017,05,28,10,22,17.00
2017,05,28,10,23,17.00
2017,05,28,10,24,16.90
2017,05,28,10,25,16.90
2017,05,28,10,26,17.00
2017,05,28,10,27,17.00
2017,05,28,10,28,17.20
2017,05,28,10,29,17.30
2017,05,28,10,30,17.40
2017,05,28,10,31,17.50
2017,05,28,10,32,17.60
2017,05,28,10,33,17.70
2017,05,28,10,34,17.80
2017,05,28,10,35,17.90
2017,05,28,10,36,18.10
2017,05,28,10,37,18.20
2017,05,28,10,38,18.20
2017,05,28,10,39,18.10
2017,05,28,10,40,18.10
2017,05,28,10,41,18.10
2017,05,28,10,42,18.10
2017,05,28,10,43,18.10
2017,05,28,10,44,18.10
2017,05,28,10,45,18.20
2017,05,28,10,46,18.20
2017,05,28,10,47,18.20
2017,05,28,10,48,18.20
2017,05,28,10,49,18.40
2017,05,28,10,50,18.40
2017,05,28,10,51,18.40
2017,05,28,10,52,18.30
2017,05,28,10,53,18.30
2017,05,28,10,54,18.30
2017,05,28,10,55,18.20
2017,05,28,10,56,18.10
2017,05,28,10,57,18.00
2017,05,28,10,58,17.90
2017,05,28,10,59,17.90
2017,05,28,11,00,18.00
2017,05,28,11,01,18.10
2017,05,28,11,02,18.00
2017,05,28,11,03,18.00
2017,05,28,11,04,18.10
2017,05,28,11,05,18.10
2017,05,28,11,06,18.20
2017,05,28,11,07,18.20
2017,05,28,11,08,18.30
2017,05,28,11,09,18.40
2017,05,28,11,10,18.40
2017,05,28,11,11,18.40
2017,05,28,11,12,18.40
2017,05,28,11,13,18.50
2017,05,28,11,14,18.40
2017,05,28,11,15,18.30
2017,05,28,11,16,18.30
2017,05,28,11,17,18.30
2017,05,28,11,18,18.20
2017,05,28,11,19,18.20
2017,05,28,11,20,18.20
2017,05,28,11,21,18.30
2017,05,28,11,22,18.40
2017,05,28,11,23,18.50
2017,05,28,11,24,18.50
2017,05,28,11,25,18.60
2017,05,28,11,26,18.60
2017,05,28,11,27,18.70
2017,05,28,11,28,18.70
2017,05,28,11,29,18.80
2017,05,28,11,30,19.00
2017,05,28,11,31,19.20
2017,05,28,11,32,19.30
2017,05,28,11,33,19.40
2017,05,28,11,34,19.40
2017,05,28,11,35,19.50
2017,05,28,11,36,19.40
2017,05,28,11,37,19.50
2017,05,28,11,38,19.50
2017,05,28,11,39,19.50
2017,05,28,11,40,19.50
2017,05,28,11,41,19.40
2017,05,28,11,42,19.10
2017,05,28,11,43,18.80
2017,05,28,11,44,18.40
2017,05,28,11,45,18.10
2017,05,28,11,46,17.80
2017,05,28,11,47,17.50
2017,05,28,11,48,17.30
2017,05,28,11,49,17.30
2017,05,28,11,50,17.30
2017,05,28,11,51,17.10
2017,05,28,11,52,17.00
2017,05,28,11,53,16.90
2017,05,28,11,54,16.90
2017,05,28,11,55,17.00
2017,05,28,11,56,17.00
2017,05,28,11,57,17.20
2017,05,28,11,58,17.30
2017,05,28,11,59,17.30
2017,05,28,12,00,17.30
2017,05,28,12,01,17.40
2017,05,28,12,02,17.40
2017,05,28,12,03,17.40
2017,05,28,12,04,17.50
2017,05,28,12,05,17.60
2017,05,28,12,06,17.70
2017,05,28,12,07,17.80
2017,05,28,12,08,17.90
2017,05,28,12,09,17.90
2017,05,28,12,10,17.90
2017,05,28,12,11,18.00
2017,05,28,12,12,18.10
2017,05,28,12,13,18.20
2017,05,28,12,14,18.20
2017,05,28,12,15,18.40
2017,05,28,12,16,18.60
2017,05,28,12,17,18.70
2017,05,28,12,18,18.80
2017,05,28,12,19,18.80
2017,05,28,12,20,18.90
2017,05,28,12,21,18.90
2017,05,28,12,22,19.00
2017,05,28,12,23,19.10
2017,05,28,12,24,19.10
2017,05,28,12,25,19.10
2017,05,28,12,26,19.10
2017,05,28,12,27,19.10
2017,05,28,12,28,19.10
2017,05,28,12,29,19.20
2017,05,28,12,30,19.30
2017,05,28,12,31,19.30
2017,05,28,12,32,19.30
2017,05,28,12,33,19.30
2017,05,28,12,34,19.40
2017,05,28,12,35,19.50
2017,05,28,12,36,19.60
2017,05,28,12,37,19.60
2017,05,28,12,38,19.80
2017,05,28,12,39,19.80
2017,05,28,12,40,19.80
2017,05,28,12,41,19.80
2017,05,28,12,42,19.70
2017,05,28,12,43,19.70
2017,05,28,12,44,19.70
2017,05,28,12,45,19.80
2017,05,28,12,46,19.70
2017,05,28,12,47,19.70
2017,05,28,12,48,19.60
2017,05,28,12,49,19.60
2017,05,28,12,50,19.60
2017,05,28,12,51,19.50
2017,05,28,12,52,19.40
2017,05,28,12,53,19.40
2017,05,28,12,54,19.40
2017,05,28,12,55,19.50
2017,05,28,12,56,19.50
2017,05,28,12,57,19.50
2017,05,28,12,58,19.50
2017,05,28,12,59,19.50
2017,05,28,13,00,19.50
2017,05,28,13,01,19.50
2017,05,28,13,02,19.60
2017,05,28,13,03,19.60
2017,05,28,13,04,19.60
2017,05,28,13,05,19.70
2017,05,28,13,06,19.80
2017,05,28,13,07,19.80
2017,05,28,13,08,19.70
2017,05,28,13,09,19.60
2017,05,28,13,10,19.60
2017,05,28,13,11,19.60
2017,05,28,13,12,19.60
2017,05,28,13,13,19.60
2017,05,28,13,14,19.60
2017,05,28,13,15,19.60
2017,05,28,13,16,19.60
2017,05,28,13,17,19.70
2017,05,28,13,18,19.70
2017,05,28,13,19,19.70
2017,05,28,13,20,19.60
2017,05,28,13,21,19.50
2017,05,28,13,22,19.50
2017,05,28,13,23,19.50
2017,05,28,13,24,19.60
2017,05,28,13,25,19.70
2017,05,28,13,26,19.70
2017,05,28,13,27,19.80
2017,05,28,13,28,20.00
2017,05,28,13,29,20.10
2017,05,28,13,30,20.40
2017,05,28,13,31,20.70
2017,05,28,13,32,20.90
2017,05,28,13,33,21.00
2017,05,28,13,34,21.00
2017,05,28,13,35,21.00
2017,05,28,13,36,20.90
2017,05,28,13,37,20.80
2017,05,28,13,38,20.80
2017,05,28,13,39,20.70
2017,05,28,13,40,20.80
2017,05,28,13,41,20.80
2017,05,28,13,42,20.70
2017,05,28,13,43,20.60
2017,05,28,13,44,20.50
2017,05,28,13,45,20.50
2017,05,28,13,46,20.50
2017,05,28,13,47,20.50
2017,05,28,13,48,20.60
2017,05,28,13,49,20.60
2017,05,28,13,50,20.60
2017,05,28,13,51,20.60
2017,05,28,13,52,20.60
2017,05,28,13,53,20.70
2017,05,28,13,54,20.70
2017,05,28,13,55,20.70
2017,05,28,13,56,20.80
2017,05,28,13,57,20.90
2017,05,28,13,58,21.00
2017,05,28,13,59,21.10
2017,05,28,14,00,21.20
2017,05,28,14,01,21.20
2017,05,28,14,02,21.20
2017,05,28,14,03,21.10
2017,05,28,14,04,21.00
2017,05,28,14,05,21.00
2017,05,28,14,06,21.00
2017,05,28,14,07,21.00
2017,05,28,14,08,21.00
2017,05,28,14,09,20.90
2017,05,28,14,10,20.90
2017,05,28,14,11,20.80
2017,05,28,14,12,20.60
2017,05,28,14,13,20.50
2017,05,28,14,14,20.30
2017,05,28,14,15,20.20
2017,05,28,14,16,20.20
2017,05,28,14,17,20.10
2017,05,28,14,18,20.00
2017,05,28,14,19,19.90
2017,05,28,14,20,20.00
2017,05,28,14,21,20.10
2017,05,28,14,22,20.20
2017,05,28,14,23,20.20
2017,05,28,14,24,20.10
2017,05,28,14,25,20.20
2017,05,28,14,26,20.10
2017,05,28,14,27,20.10
2017,05,28,14,28,20.20
2017,05,28,14,29,20.20
2017,05,28,14,30,20.20
2017,05,28,14,31,20.10
2017,05,28,14,32,20.20
2017,05,28,14,33,20.20
2017,05,28,14,34,20.20
2017,05,28,14,35,20.10
2017,05,28,14,36,19.90
2017,05,28,14,37,19.90
2017,05,28,14,38,19.90
2017,05,28,14,39,19.90
2017,05,28,14,40,19.90
2017,05,28,14,41,20.00
2017,05,28,14,42,20.10
2017,05,28,14,43,20.20
2017,05,28,14,44,20.30
2017,05,28,14,45,20.50
2017,05,28,14,46,20.50
2017,05,28,14,47,20.50
2017,05,28,14,48,20.50
2017,05,28,14,49,20.50
2017,05,28,14,50,20.50
2017,05,28,14,51,20.40
2017,05,28,14,52,20.40
2017,05,28,14,53,20.40
2017,05,28,14,54,20.40
2017,05,28,14,55,20.40
2017,05,28,14,56,20.40
2017,05,28,14,57,20.40
2017,05,28,14,58,20.30
2017,05,28,14,59,20.40
2017,05,28,15,00,20.50
2017,05,28,15,01,20.50
2017,05,28,15,02,20.70
2017,05,28,15,03,20.90
2017,05,28,15,04,21.10
2017,05,28,15,05,21.30
2017,05,28,15,06,21.50
2017,05,28,15,07,21.60
2017,05,28,15,08,21.70
2017,05,28,15,09,21.80
2017,05,28,15,10,22.00
2017,05,28,15,11,22.10
2017,05,28,15,12,22.30
2017,05,28,15,13,22.50
2017,05,28,15,14,22.60
2017,05,28,15,15,22.70
2017,05,28,15,16,22.80
2017,05,28,15,17,22.80
2017,05,28,15,18,22.80
2017,05,28,15,19,22.90
2017,05,28,15,20,22.90
2017,05,28,15,21,22.90
2017,05,28,15,22,22.90
2017,05,28,15,23,22.90
2017,05,28,15,24,22.90
2017,05,28,15,25,22.90
2017,05,28,15,26,22.80
2017,05,28,15,27,22.70
2017,05,28,15,28,22.50
2017,05,28,15,29,22.50
2017,05,28,15,30,22.30
2017,05,28,15,31,22.20
2017,05,28,15,32,22.10
2017,05,28,15,33,22.10
2017,05,28,15,34,22.00
2017,05,28,15,35,22.00
2017,05,28,15,36,21.90
2017,05,28,15,37,21.90
2017,05,28,15,38,21.80
2017,05,28,15,39,21.70
2017,05,28,15,40,21.60
2017,05,28,15,41,21.40
2017,05,28,15,42,21.30
2017,05,28,15,43,21.10
2017,05,28,15,44,21.10
2017,05,28,15,45,21.20
2017,05,28,15,46,21.30
2017,05,28,15,47,21.30
2017,05,28,15,48,21.40
2017,05,28,15,49,21.60
2017,05,28,15,50,21.70
2017,05,28,15,51,21.90
2017,05,28,15,52,21.90
2017,05,28,15,53,21.90
2017,05,28,15,54,21.90
2017,05,28,15,55,22.00
2017,05,28,15,56,22.20
2017,05,28,15,57,22.30
2017,05,28,15,58,22.40
2017,05,28,15,59,22.50
2017,05,28,16,00,22.60
2017,05,28,16,01,22.60
2017,05,28,16,02,22.70
2017,05,28,16,03,22.70
2017,05,28,16,04,22.70
2017,05,28,16,05,22.60
2017,05,28,16,06,22.50
2017,05,28,16,07,22.40
2017,05,28,16,08,22.40
2017,05,28,16,09,22.30
2017,05,28,16,10,22.30
2017,05,28,16,11,22.40
2017,05,28,16,12,22.50
2017,05,28,16,13,22.50
2017,05,28,16,14,22.60
2017,05,28,16,15,22.60
2017,05,28,16,16,22.50
2017,05,28,16,17,22.40
2017,05,28,16,18,22.50
2017,05,28,16,19,22.60
2017,05,28,16,20,22.60
2017,05,28,16,21,22.40
2017,05,28,16,22,22.20
2017,05,28,16,23,22.10
2017,05,28,16,24,22.00
2017,05,28,16,25,21.90
2017,05,28,16,26,21.50
2017,05,28,16,27,21.30
2017,05,28,16,28,21.30
2017,05,28,16,29,21.10
2017,05,28,16,30,21.00
2017,05,28,16,31,20.80
2017,05,28,16,32,20.70
2017,05,28,16,33,20.60
2017,05,28,16,34,20.60
2017,05,28,16,35,20.70
2017,05,28,16,36,20.80
2017,05,28,16,37,20.90
2017,05,28,16,38,21.00
2017,05,28,16,39,21.00
2017,05,28,16,40,21.10
2017,05,28,16,41,21.20
2017,05,28,16,42,21.20
2017,05,28,16,43,21.20
2017,05,28,16,44,21.20
2017,05,28,16,45,21.20
2017,05,28,16,46,21.30
2017,05,28,16,47,21.30
2017,05,28,16,48,21.40
2017,05,28,16,49,21.60
2017,05,28,16,50,21.70
2017,05,28,16,51,22.00
2017,05,28,16,52,22.20
2017,05,28,16,53,22.40
2017,05,28,16,54,22.60
2017,05,28,16,55,22.70
2017,05,28,16,56,22.70
2017,05,28,16,57,22.70
2017,05,28,16,58,22.70
2017,05,28,16,59,22.70
2017,05,28,17,00,22.60
2017,05,28,17,01,22.60
2017,05,28,17,02,22.60
2017,05,28,17,03,22.60
2017,05,28,17,04,22.60
2017,05,28,17,05,22.70
2017,05,28,17,06,22.80
2017,05,28,17,07,22.90
2017,05,28,17,08,23.00
2017,05,28,17,09,23.10
2017,05,28,17,10,23.20
2017,05,28,17,11,23.20
2017,05,28,17,12,23.10
2017,05,28,17,13,23.00
2017,05,28,17,14,22.90
2017,05,28,17,15,22.80
2017,05,28,17,16,22.60
2017,05,28,17,17,22.40
2017,05,28,17,18,22.10
2017,05,28,17,19,21.80